TimeCST,TemperatureF,Dew PointF,Humidity,Sea Level PressureIn,VisibilityMPH,Wind Direction,Wind SpeedMPH,Gust SpeedMPH,PrecipitationIn,Events,Conditions,WindDirDegrees,DateUTC
12:13 AM,15.8,12.2,86,29.45,10.0,Calm,Calm,-,N/A,,Overcast,0,2014-01-12 06:13:00
12:34 AM,15.8,12.2,86,29.46,7.0,Calm,Calm,-,N/A,,Overcast,0,2014-01-12 06:34:00
12:53 AM,15.8,12.2,86,29.45,7.0,West,3.5,-,N/A,,Overcast,280,2014-01-12 06:53:00
1:13 AM,15.8,12.2,86,29.45,7.0,Calm,Calm,-,N/A,,Overcast,0,2014-01-12 07:13:00
1:34 AM,15.8,12.2,86,29.46,10.0,Calm,Calm,-,N/A,,Overcast,0,2014-01-12 07:34:00
1:54 AM,15.8,12.2,86,29.46,10.0,Calm,Calm,-,N/A,,Overcast,0,2014-01-12 07:54:00
2:13 AM,15.8,12.2,86,29.47,10.0,West,3.5,-,N/A,,Overcast,270,2014-01-12 08:13:00
2:33 AM,15.8,12.2,86,29.48,10.0,Calm,Calm,-,N/A,,Overcast,0,2014-01-12 08:33:00
2:54 AM,15.8,12.2,86,29.47,10.0,Calm,Calm,-,N/A,,Overcast,0,2014-01-12 08:54:00
3:13 AM,15.8,12.2,86,29.47,10.0,Calm,Calm,-,N/A,,Overcast,0,2014-01-12 09:13:00
3:33 AM,15.8,12.2,86,29.46,10.0,Calm,Calm,-,N/A,,Overcast,0,2014-01-12 09:33:00
3:53 AM,15.8,12.2,86,29.45,10.0,Calm,Calm,-,N/A,,Overcast,0,2014-01-12 09:53:00
4:14 AM,15.8,12.2,86,29.45,10.0,Calm,Calm,-,N/A,,Overcast,0,2014-01-12 10:14:00
4:34 AM,15.8,12.2,86,29.45,10.0,Calm,Calm,-,N/A,,Overcast,0,2014-01-12 10:34:00
4:54 AM,17.6,12.2,79,29.45,10.0,Calm,Calm,-,N/A,,Overcast,0,2014-01-12 10:54:00
5:13 AM,17.6,14.0,86,29.45,10.0,Calm,Calm,-,N/A,,Overcast,0,2014-01-12 11:13:00
5:33 AM,17.6,14.0,86,29.44,10.0,Calm,Calm,-,N/A,,Overcast,0,2014-01-12 11:33:00
5:54 AM,17.6,15.8,93,29.41,7.0,Calm,Calm,-,N/A,,Overcast,0,2014-01-12 11:54:00
6:13 AM,19.4,15.8,86,29.41,7.0,Calm,Calm,-,N/A,,Overcast,0,2014-01-12 12:13:00
6:33 AM,19.4,15.8,86,29.40,7.0,Calm,Calm,-,N/A,,Overcast,0,2014-01-12 12:33:00
6:54 AM,19.4,15.8,86,29.38,3.0,Calm,Calm,-,N/A,,Overcast,0,2014-01-12 12:54:00
7:13 AM,19.4,17.6,93,29.37,2.0,Calm,Calm,-,N/A,,Overcast,0,2014-01-12 13:13:00
7:34 AM,19.4,17.6,93,29.37,1.5,Calm,Calm,-,N/A,,Overcast,0,2014-01-12 13:34:00
7:53 AM,21.2,17.6,86,29.36,0.8,SE,3.5,-,N/A,,Overcast,140,2014-01-12 13:53:00
8:14 AM,21.2,17.6,86,29.36,1.8,Calm,Calm,-,N/A,,Overcast,0,2014-01-12 14:14:00
8:34 AM,21.2,17.6,86,29.36,1.2,Calm,Calm,-,N/A,,Overcast,0,2014-01-12 14:34:00
8:53 AM,21.2,19.4,93,29.35,1.2,Calm,Calm,-,N/A,,Overcast,0,2014-01-12 14:53:00
9:14 AM,21.2,19.4,93,29.34,2.0,SSE,4.6,-,N/A,,Overcast,150,2014-01-12 15:14:00
9:33 AM,23.0,19.4,86,29.35,2.0,Calm,Calm,-,N/A,,Overcast,0,2014-01-12 15:33:00
9:54 AM,23.0,19.4,86,29.35,3.0,SSE,3.5,-,N/A,,Overcast,160,2014-01-12 15:54:00
10:14 AM,24.8,19.4,80,29.33,3.0,SE,3.5,-,N/A,,Overcast,130,2014-01-12 16:14:00
10:33 AM,24.8,19.4,80,29.33,2.5,SE,4.6,-,N/A,Snow,Snow,140,2014-01-12 16:33:00
10:54 AM,24.8,21.2,86,29.31,3.0,Calm,Calm,-,N/A,,Overcast,0,2014-01-12 16:54:00
11:13 AM,24.8,21.2,86,29.29,4.0,SSE,3.5,-,N/A,,Mostly Cloudy,150,2014-01-12 17:13:00
11:34 AM,24.8,21.2,86,29.29,3.0,Calm,Calm,-,N/A,,Overcast,0,2014-01-12 17:34:00
11:54 AM,24.8,21.2,86,29.27,2.5,SSE,5.8,-,N/A,,Overcast,160,2014-01-12 17:54:00
12:13 PM,24.8,21.2,86,29.28,2.0,South,3.5,-,N/A,Snow,Light Snow,170,2014-01-12 18:13:00
12:34 PM,24.8,21.2,86,29.26,2.5,South,3.5,-,N/A,,Overcast,180,2014-01-12 18:34:00
12:53 PM,24.8,21.2,86,29.25,4.0,South,3.5,-,N/A,,Overcast,170,2014-01-12 18:53:00
1:13 PM,26.6,23.0,86,29.24,4.0,South,3.5,-,N/A,,Overcast,170,2014-01-12 19:13:00
1:33 PM,26.6,23.0,86,29.24,3.0,South,3.5,-,N/A,,Overcast,190,2014-01-12 19:33:00
1:54 PM,26.6,23.0,86,29.25,4.0,South,4.6,-,N/A,,Overcast,190,2014-01-12 19:54:00
2:14 PM,26.6,23.0,86,29.25,3.0,South,3.5,-,N/A,,Overcast,180,2014-01-12 20:14:00
2:33 PM,26.6,23.0,86,29.25,3.0,SSW,4.6,-,N/A,,Overcast,200,2014-01-12 20:33:00
2:54 PM,26.6,23.0,86,29.27,2.5,South,4.6,-,N/A,,Overcast,170,2014-01-12 20:54:00
3:13 PM,26.6,23.0,86,29.27,1.2,South,3.5,-,N/A,,Overcast,190,2014-01-12 21:13:00
3:34 PM,26.6,23.0,86,29.26,1.0,South,3.5,-,N/A,,Overcast,190,2014-01-12 21:34:00
3:54 PM,26.6,23.0,86,29.28,1.2,South,3.5,-,N/A,,Overcast,190,2014-01-12 21:54:00
4:13 PM,26.6,23.0,86,29.28,1.0,SSW,3.5,-,N/A,,Overcast,200,2014-01-12 22:13:00
4:34 PM,26.6,23.0,86,29.28,0.5,Calm,Calm,-,N/A,Fog,Light Freezing Fog,0,2014-01-12 22:34:00
4:54 PM,26.6,24.8,93,29.28,0.5,Calm,Calm,-,N/A,Fog,Light Freezing Fog,0,2014-01-12 22:54:00
5:13 PM,26.6,24.8,93,29.29,0.2,Calm,Calm,-,N/A,Fog,Light Freezing Fog,0,2014-01-12 23:13:00
5:34 PM,26.6,24.8,93,29.29,0.2,Calm,Calm,-,N/A,Fog,Light Freezing Fog,0,2014-01-12 23:34:00
5:53 PM,26.6,24.8,93,29.29,0.2,Calm,Calm,-,N/A,Fog,Light Freezing Fog,0,2014-01-12 23:53:00
6:13 PM,26.6,24.8,93,29.30,0.8,SW,3.5,-,N/A,,Overcast,230,2014-01-13 00:13:00
6:34 PM,28.4,24.8,86,29.30,2.0,Calm,Calm,-,N/A,,Overcast,0,2014-01-13 00:34:00
6:53 PM,26.6,24.8,93,29.31,2.0,Calm,Calm,-,N/A,,Overcast,0,2014-01-13 00:53:00
7:13 PM,26.6,24.8,93,29.32,2.0,Calm,Calm,-,N/A,,Overcast,0,2014-01-13 01:13:00
7:34 PM,26.6,24.8,93,29.33,1.8,Calm,Calm,-,N/A,,Overcast,0,2014-01-13 01:34:00
7:53 PM,26.6,24.8,93,29.33,2.0,Calm,Calm,-,N/A,,Overcast,0,2014-01-13 01:53:00
8:13 PM,26.6,24.8,93,29.32,3.0,Calm,Calm,-,N/A,,Overcast,0,2014-01-13 02:13:00
8:34 PM,26.6,24.8,93,29.32,4.0,Calm,Calm,-,N/A,,Scattered Clouds,0,2014-01-13 02:34:00
8:53 PM,26.6,23.0,86,29.31,5.0,Calm,Calm,-,N/A,,Clear,0,2014-01-13 02:53:00
9:13 PM,26.6,23.0,86,29.31,7.0,Calm,Calm,-,N/A,,Clear,0,2014-01-13 03:13:00
9:34 PM,26.6,23.0,86,29.31,7.0,Calm,Calm,-,N/A,,Clear,0,2014-01-13 03:34:00
9:53 PM,24.8,21.2,86,29.32,5.0,Calm,Calm,-,N/A,,Clear,0,2014-01-13 03:53:00
10:13 PM,24.8,19.4,80,29.32,3.0,Calm,Calm,-,N/A,,Scattered Clouds,0,2014-01-13 04:13:00
10:34 PM,23.0,19.4,86,29.33,3.0,Calm,Calm,-,N/A,,Overcast,0,2014-01-13 04:34:00
10:53 PM,24.8,21.2,86,29.33,5.0,Calm,Calm,-,N/A,,Overcast,0,2014-01-13 04:53:00
11:13 PM,23.0,19.4,86,29.34,4.0,Calm,Calm,-,N/A,,Scattered Clouds,0,2014-01-13 05:13:00
11:34 PM,21.2,19.4,93,29.33,4.0,Calm,Calm,-,N/A,,Mostly Cloudy,0,2014-01-13 05:34:00
11:53 PM,23.0,19.4,86,29.33,4.0,Calm,Calm,-,N/A,,Overcast,0,2014-01-13 05:53:00